Location: Franzen
(48.6167°N, 15.3833°E)
Time: 13:49:02
(UTC+00:00)

Cosmos 2221 - Pass Details

Date: 29 July 2021
Orbit: 593 x 614 km, 82.5° (Epoch: 21 September)

Event Time Altitude Azimuth Distance (km) Brightness Sun altitude
Rises 19:43:00 0° 342° (NNW) 2,859 7.1 -9.2°
Reaches altitude 10° 19:45:21 10° 334° (NNW) 1,954 6.4 -9.5°
Maximum altitude 19:49:16 34° 269° (W) 994 4.1 -10.0°
Drops below altitude 10° 19:53:10 10° 204° (SSW) 1,952 4.9 -10.4°
Sets 19:55:31 0° 195° (SSW) 2,854 5.7 -10.7°
